Flag for France Weather past 2 weeks in Perpignan, France

73 °F

Passing clouds.

Feels Like: 77 °F
Forecast: 50 / 71 °F
Wind: 7 mph from Southeast

Location: Perpignan Airport

Current Time: Oct 10, 2015 at 4:27:21 PM

Latest Report: Oct 10, 2015 at 4:00 PM

Visibility: N/A

Pressure: 29.77 "Hg

Humidity: 47%

Dew point: 52 °F

Location of PerpignanLocation

Historic Weather in Perpignan — Graph


Perpignan temperature yesterday

Maximum temperature yesterday: 72 °F (at 2:00 PM)
Minimum temperature yesterday: 48 °F (at 7:30 AM)
Average temperature yesterday: 60 °F

Past Weeks' High & Low Weather Summary

High81 °F (Sep 26, 3:00 PM)100% (Oct 2, 8:30 AM)30.24 "Hg (Oct 2, 8:30 AM)
Low48 °F (Oct 4, 7:30 AM)30% (Sep 25, 4:00 PM)29.74 "Hg (Oct 6, 5:30 AM)
Average64 °F69%30.04 "Hg
* Reported Sep 25 3:00 PM — Oct 10 3:00 PM, Perpignan, Weather by CustomWeather, © 2015

Note: Actual official high and low records may vary slightly from our data, if they occured in-between our weather recording intervals... More about our weather records


Perpignan weather history for previous 24 hours

Time TempWeatherWind HumidityBarometerVisibility
3:00 PM
Sat, Oct 10
73 °FPassing clouds.7 mph47%29.77 "HgN/A
2:30 PM73 °FPassing clouds.6 mph47%29.80 "HgN/A
2:00 PM75 °FPassing clouds.3 mph44%29.80 "HgN/A
1:30 PM73 °FSunny.2 mph47%29.80 "Hg10 mi
1:00 PM72 °FSunny.3 mph50%29.83 "Hg10 mi
12:30 PM72 °FSunny.3 mph47%29.83 "Hg10 mi
12:00 PM72 °FSunny.2 mph47%29.83 "Hg10 mi
11:30 AM70 °FSunny.3 mph46%29.86 "Hg10 mi
11:00 AM68 °FPassing clouds.5 mph49%29.86 "HgN/A
10:30 AM66 °FSunny.3 mph56%29.86 "Hg10 mi
10:00 AM63 °FPassing clouds.3 mph68%29.86 "HgN/A
9:30 AM59 °FSunny.3 mph77%29.86 "Hg10 mi
9:00 AM55 °FSunny.2 mph88%29.86 "Hg10 mi
8:30 AM52 °FClear.2 mph94%29.86 "Hg10 mi
8:00 AM52 °FClear.3 mph88%29.86 "Hg10 mi
7:30 AM52 °FClear.5 mph88%29.86 "Hg10 mi
7:00 AM52 °FClear.5 mph88%29.86 "Hg10 mi
6:30 AM52 °FClear.3 mph88%29.89 "Hg10 mi
6:00 AM52 °FClear.5 mph88%29.89 "Hg10 mi
5:30 AM52 °FClear.3 mph88%29.89 "Hg10 mi
5:00 AM52 °FClear.3 mph88%29.89 "Hg10 mi
4:30 AM52 °FClear.3 mph88%29.89 "Hg10 mi
4:00 AM54 °FClear.5 mph82%29.92 "Hg10 mi
3:30 AM54 °FClear.2 mph77%29.92 "Hg10 mi
3:00 AM55 °FPassing clouds.3 mph72%29.92 "HgN/A
2:30 AM55 °FClear.2 mph77%29.92 "Hg10 mi
2:00 AM55 °FPassing clouds.5 mph77%29.92 "HgN/A
1:30 AM57 °FPassing clouds.2 mph72%29.92 "HgN/A
1:00 AM57 °FClear.6 mph72%29.92 "Hg10 mi
12:30 AM57 °FPassing clouds.6 mph72%29.95 "HgN/A
12:00 AM57 °FPartly cloudy.7 mph77%29.95 "HgN/A
11:00 PM
Fri, Oct 9
57 °FPassing clouds.5 mph77%29.95 "HgN/A
10:30 PM55 °FClear.6 mph88%29.95 "Hg10 mi
10:00 PM57 °FClear.7 mph82%29.95 "Hg10 mi
9:30 PM57 °FClear.5 mph82%29.95 "Hg10 mi
9:00 PM59 °FClear.3 mph72%29.95 "Hg10 mi
8:30 PM59 °FClear.3 mph72%29.95 "Hg10 mi
8:00 PM63 °FSunny.No wind64%29.92 "Hg10 mi
7:30 PM64 °FSunny.5 mph60%29.92 "Hg10 mi
7:00 PM66 °FSunny.5 mph52%29.92 "Hg10 mi
6:30 PM68 °FPassing clouds.7 mph49%29.92 "HgN/A
6:00 PM70 °FSunny.8 mph50%29.92 "Hg10 mi
5:30 PM70 °FSunny.8 mph50%29.92 "Hg10 mi
5:00 PM72 °FPassing clouds.5 mph44%29.92 "HgN/A
4:30 PM72 °FPassing clouds.7 mph44%29.92 "HgN/A
4:00 PM72 °FPassing clouds.7 mph44%29.92 "HgN/A
Weather by CustomWeather, © 2015

See weather overviewHow to use our weather pages